Location: Błonie
(52.1971°N, 20.6200°E)
Time: 13:28:23
(UTC+01:00)

ISS - Pass Details

Date: 31 January 2019
Orbit: 403 x 411 km, 51.6° (Epoch: 23 February)

Event Time Altitude Azimuth Distance (km) Brightness Sun altitude
Rises 18:09:13 0° 268° (W) 2,336 1.8 -16.4°
Reaches altitude 10° 18:11:18 10° 267° (W) 1,476 0.3 -16.7°
Maximum altitude 18:14:36 83° 181° (S) 419 -3.9 -17.2°
Enters shadow 18:15:19 52° 99° (E) 517 -3.7 -17.3°
